Content
SEND FEEDBACK

Daily
Averages
Monthly
Summary
United States of America

TELLURIDE, COLORADO


Home > North America > United States > Colorado
Elevation: 9813 feet     Latitude: 37 57N     Longitude: 107 49W

WEATHER
 
SELECT A DAY
Number of Records: 303,952;   Date Range: 1/1/95 - 10/1/14
 
SHARE

PRINT THIS DATA

[ ← Previous Day ]
WEATHER ALMANAC - FEBRUARY 28, 2013
[ Next Day → ]
[ °C ]   °F
Weather ElementAverageHighLow
Temperature18.4 °F30.2 °F (11:55 am)5 °F (1:55 am)
Dewpoint2.4 °F10.4 °F (9:55 pm)-7.6 °F (12:35 pm)
Humidity53.7 %79 % (12:55 am)19 % (12:35 pm)
Barometer30.29 in30.37 in (10:35 pm)30.21 in (12:35 am)
Wind Speed5.5 mph18.4 mph (3:15 pm)
Wind Gust23 mph (4:35 pm)
Weather ElementAverage
Visibility10 mi
Wind DirectionSSE (144.3 °)

Weather ElementTotal
Precipitation---
Heating Degree Days47.4 (Base 65)
Averaged from 70 records on February 28, 2013
WEATHER CONDITIONS BREAKOUT
WIND DIRECTION BREAKOUT
WEATHER BY HOUR - FEBRUARY 28, 2013
[ °C ]   °F
Local TimeTemperatureDewpointHumidityBarometerVisibilityWind DirectionWind SpeedGust SpeedPrecipitationEventsConditions
12:35 AM8.6 °F1.4 °F73 %30.21 in10.0 miEast (100°)8.1 mphClear
12:55 AM6.8 °F1.4 °F79 %30.21 in10.0 miESE (120°)6.9 mphClear
1:15 AM8.6 °F1.4 °F73 %30.21 in10.0 miESE (120°)5.8 mphClear
1:35 AM8.6 °F1.4 °F73 %30.23 in10.0 miESE (120°)5.8 mphClear
1:55 AM5.0 °F-0.4 °F78 %30.23 in10.0 miESE (120°)8.1 mphClear
2:15 AM6.8 °F1.4 °F79 %30.24 in10.0 miCalmClear
2:35 AM8.6 °F1.4 °F73 %30.24 in10.0 miCalmClear
2:55 AM5.0 °F-0.4 °F78 %30.24 in10.0 miSE (140°)5.8 mphClear
3:15 AM6.8 °F-0.4 °F72 %30.25 in10.0 miSSE (160°)4.6 mphClear
3:35 AM5.0 °F-0.4 °F78 %30.25 in10.0 miESE (110°)6.9 mphClear
3:55 AM5.0 °F-0.4 °F78 %30.25 in10.0 miEast (80°)3.5 mphClear
4:15 AM5.0 °F-0.4 °F78 %30.25 in10.0 miCalmClear
4:35 AM5.0 °F-2.2 °F72 %30.25 in10.0 miCalmClear
4:55 AM5.0 °F-0.4 °F78 %30.25 in10.0 miSE (140°)8.1 mphClear
5:15 AM6.8 °F1.4 °F79 %30.26 in10.0 miESE (120°)6.9 mphClear
5:35 AM5.0 °F-0.4 °F78 %30.27 in10.0 miESE (110°)5.8 mphClear
5:55 AM5.0 °F-2.2 °F72 %30.27 in10.0 miESE (110°)5.8 mphClear
6:15 AM5.0 °F-2.2 °F72 %30.27 in10.0 miESE (120°)6.9 mphClear
6:35 AM6.8 °F-0.4 °F72 %30.27 in10.0 miSE (130°)8.1 mphClear
6:55 AM6.8 °F-2.2 °F67 %30.27 in10.0 miESE (110°)6.9 mphClear
7:15 AM5.0 °F-0.4 °F78 %30.28 in10.0 miESE (120°)6.9 mphClear
7:35 AM6.8 °F-2.2 °F67 %30.28 in10.0 miSE (140°)6.9 mphClear
7:55 AM8.6 °F-0.4 °F67 %30.28 in10.0 miEast (90°)4.6 mphClear
8:15 AM10.4 °F-0.4 °F62 %30.29 in10.0 miESE (120°)4.6 mphClear
8:35 AM10.4 °F-0.4 °F62 %30.29 in10.0 miSE (130°)6.9 mphClear
8:55 AM12.2 °F-0.4 °F57 %30.29 in10.0 miESE (120°)4.6 mphClear
9:15 AM14.0 °F1.4 °F57 %30.29 in10.0 miSE (130°)4.6 mphClear
9:35 AM17.6 °F3.2 °F53 %30.29 in10.0 miEast (100°)3.5 mphClear
9:55 AM19.4 °F3.2 °F49 %30.29 in10.0 miESE (120°)3.5 mphClear
10:15 AM21.2 °F3.2 °F46 %30.29 in10.0 miCalmClear
10:35 AM23.0 °F3.2 °F43 %30.29 in10.0 miCalmClear
10:55 AM26.6 °F-0.4 °F31 %30.29 in10.0 miWest (270°)6.9 mphClear
11:15 AM26.6 °F-0.4 °F31 %30.30 in10.0 miWest (260°)9.2 mphClear
11:35 AM28.4 °F-4.0 °F25 %30.29 in10.0 miWest (260°)4.6 mphClear
11:55 AM30.2 °F-4.0 °F23 %30.29 in10.0 miSW (220°)4.6 mphClear
12:15 PM30.2 °F-4.0 °F23 %30.29 in10.0 miWSW (240°)6.9 mphClear
12:35 PM30.2 °F-7.6 °F19 %30.28 in10.0 miWest (270°)8.1 mphClear
12:55 PM30.2 °F-5.8 °F21 %30.28 in10.0 miWest (260°)6.9 mphClear
1:15 PM30.2 °F-2.2 °F25 %30.27 in10.0 miWNW (290°)6.9 mphClear
1:35 PM30.2 °F-2.2 °F25 %30.27 in10.0 miWest (260°)12.7 mph18.4 mphClear
2:15 PM30.2 °F-0.4 °F27 %30.27 in10.0 miWSW (250°)11.5 mphClear
2:35 PM30.2 °F1.4 °F29 %30.27 in10.0 miWest (260°)16.1 mph21.9 mphClear
2:55 PM30.2 °F1.4 °F29 %30.27 in10.0 miWest (270°)12.7 mph16.1 mphScattered Clouds
3:15 PM30.2 °F1.4 °F29 %30.28 in10.0 miWest (260°)18.4 mphScattered Clouds
3:35 PM30.2 °F3.2 °F32 %30.28 in10.0 miWest (260°)16.1 mph21.9 mphScattered Clouds
3:55 PM28.4 °F3.2 °F34 %30.28 in10.0 miWest (270°)12.7 mph21.9 mphScattered Clouds
4:15 PM28.4 °F3.2 °F34 %30.29 in10.0 miWest (280°)11.5 mph17.3 mphMostly Cloudy
4:35 PM28.4 °F3.2 °F34 %30.29 in10.0 miWest (270°)12.7 mph23.0 mphMostly Cloudy
4:55 PM28.4 °F3.2 °F34 %30.29 in10.0 miWNW (290°)6.9 mphScattered Clouds
5:15 PM28.4 °F3.2 °F34 %30.29 in10.0 miWNW (290°)4.6 mphClear
5:35 PM28.4 °F3.2 °F34 %30.31 in10.0 miWNW (290°)6.9 mphClear
5:55 PM26.6 °F5.0 °F40 %30.31 in10.0 miWest (280°)8.1 mphClear
6:15 PM26.6 °F6.8 °F43 %30.31 in10.0 miNW (310°)4.6 mphClear
6:35 PM24.8 °F8.6 °F50 %30.31 in10.0 miCalmClear
6:55 PM24.8 °F8.6 °F50 %30.31 in10.0 miWSW (250°)4.6 mphClear
7:15 PM23.0 °F8.6 °F54 %30.33 in10.0 miWest (270°)3.5 mphClear
7:35 PM21.2 °F8.6 °F58 %30.33 in10.0 miSouth (190°)3.5 mphClear
7:55 PM21.2 °F8.6 °F58 %30.34 in10.0 miCalmMostly Cloudy
8:15 PM23.0 °F8.6 °F54 %30.34 in10.0 miSSE (150°)4.6 mphOvercast
8:35 PM21.2 °F8.6 °F58 %30.34 in10.0 miSE (130°)4.6 mphOvercast
8:55 PM21.2 °F8.6 °F58 %30.34 in10.0 miEast (100°)3.5 mphOvercast
9:15 PM21.2 °F8.6 °F58 %30.35 in10.0 miCalmOvercast
9:35 PM21.2 °F8.6 °F58 %30.35 in10.0 miCalmOvercast
9:55 PM21.2 °F10.4 °F63 %30.35 in10.0 miCalmOvercast
10:15 PM21.2 °F8.6 °F58 %30.36 in10.0 miCalmOvercast
10:35 PM23.0 °F8.6 °F54 %30.37 in10.0 miCalmOvercast
10:55 PM23.0 °F8.6 °F54 %30.37 in10.0 miCalmOvercast
11:15 PM23.0 °F10.4 °F59 %30.37 in10.0 miESE (120°)3.5 mphOvercast
11:35 PM23.0 °F10.4 °F59 %30.37 in10.0 miCalmOvercast
11:55 PM23.0 °F10.4 °F59 %30.37 in10.0 miCalmOvercast
Hourly data recorded from KTEX, located miles away from Telluride, Colorado







STORIES FROM OUR PARTNERS